NOAA 16 DEB, 41227

Orbit data source: Space-Track

NOAA 16 DEB, 41227 is space debris in SSO originally from a launch on Thu, 21 Sep 2000 UTC launched from the Air Force Western Test Range (AFWTR). Debris objects in space refer to the collection of defunct objects orbiting the Earth. Examples of debris include non-operational satellites, rocket bodies, and fragments generated from explosions, collisions, or faulty payload assembly.

Loading next visibility...
Identifier
41227, 2000-055EG
Orbit
SSO
Country
Flag of USUS
Related business
Manufacturer
Unknown
Mission
Spacecraft
Bus & Motor
Unknown
Mass
Unknown
Launch date (UTC)
Icon of a cake. It is the launch day of the satellite!2000-09-21 (26 years ago)
Launch vehicle
Unknown
Launch site
Air Force Western Test Range (AFWTR)
Object type
Payload
Rocket body
Debris
Shape & HBR
Unknown shape, 0.1 m
Radar Cross Section
Medium (>0.1 m² and <1 m²)

Expand to show TLE details & history
Last TLE update: 2 days ago

TLE from 2 days ago
0 NOAA 16 DEB
1 41227U 00055EG  26263.19959460  .00005075  00000-0  11061-2 0  9996
2 41227  99.0377 169.9974 0020602 173.0111 187.1377 14.58277583561435
Epoch: 2026-09-20T04:47Z
TLE epoch observation values (Epoch: 2026-09-20T04:47:24.973Z)
Latitude
0.00002°
Longitude
99.04614°
Altitude
716.167 km
Speed
7.49 km/s
True Right ascension
11h 19m 59s
True Declination
0° 00' 00"
Sunlit
Object was in daylight at epoch
Visualization orbit readout
Latitude
Unknown
Longitude
Unknown
Altitude
Unknown
Speed
Unknown
Apparent Right ascension
Unknown
Apparent Declination
Unknown
Sunlit
N/A
Visualization observer readout
Local Sidereal Time
09:56:57
Azimuth
Unknown
Elevation
Unknown
Doppler factor
Unknown
Orbital elements
Apogee altitude
710.439 km
Perigee altitude
681.291 km
Semi-major axis
7,074.002 km
Eccentricity
0.00206
Inclination
99.0377°
RAAN
169.9974°
Arg. of periapsis
173.0111°
True anomaly
187.10844°
Mean anomaly
187.1377°
Eccentric anomaly
187.12306°
Mean motion
3.64792 °/min
Orbital period
98.69 mins
BSTAR
0.0011061
Loading maneuver chart data...
Computing Atmospheric mass density...

Documentation

Showing up to 5 results
|